User: anonymous   Login
Location: Unspecified
(0.0000°N, 0.0000°E)
Time: 17:23:17
(UTC+02:00)
Language:

CZ-2C R/B - Orbit

View from above orbital plane
View from above orbital plane
View from above satellite
View from above satellite

Ground track
Ground track

The orbit data is extracted from the following two-line orbital elements,

1 28480U 04046B   16182.90406791  .00000024  00000-0  24401-4 0  9991
2 28480  98.1837 295.9033 0142165 180.7809 287.9663 14.25598173604188
Epoch (UTC): 30 June 2016 21:41:51
Eccentricity: 0.0142165
inclination: 98.1837°
perigee height: 704 km
apogee height: 908 km
right ascension of ascending node: 295.9033°
argument of perigee: 180.7809°
revolutions per day: 14.25598173
mean anomaly at epoch: 287.9663°
orbit number at epoch: 60418

The dashed part of the orbit path shows where the satellite is in the earth's shadow,  

DLR